Theta_e
301 302 303 305 306 306 307 307 307 306 306 305 305 305 304 302 303 297 291 292 290 283 283 285 285 287 289 290 286 286 287 286 284 281 279 277 276 277 276 279 282 281 279 276 272 270 270 274 278 279 277 276 275 273
300 301 301 302 304 305 305 305 305 305 305 305 305 304 303 303 302 296 289 292 292 286 284 286 286 286 285 286 290 289 288 286 288 280 278 276 275 274 274 277 280 276 280 276 279 277 273 273 273 274 276 273 272 271
298 299 300 300 301 302 304 304 304 304 304 304 304 303 302 301 300 295 288 287 290 284 284 284 282 286 289 287 289 287 286 289 285 285 279 276 273 277 272 271 276 279 281 277 276 272 271 270 270 271 272 270 270 270
296 297 297 298 298 300 302 302 302 302 302 302 301 300 299 299 297 294 287 287 288 285 281 282 288 284 288 290 291 291 289 287 287 285 279 275 276 280 276 278 277 278 281 274 272 270 270 270 270 269 269 268 268 268
295 296 296 296 297 297 298 300 301 302 301 300 300 300 299 299 297 291 288 287 287 285 280 282 284 284 286 290 289 290 289 286 283 282 278 278 279 277 273 276 272 272 275 277 276 273 272 271 270 270 268 266 267 266
295 295 295 295 296 296 296 297 298 299 299 300 301 300 298 298 296 293 286 288 288 285 282 276 282 281 281 286 286 285 285 284 283 279 277 277 281 279 268 266 266 265 266 266 267 268 269 268 269 269 266 265 266 265
293 294 294 294 295 295 295 295 295 297 298 298 297 296 295 295 288 284 281 283 287 287 278 273 274 280 278 283 282 282 284 281 281 274 273 276 278 275 264 268 264 264 264 267 267 267 264 266 263 265 265 264 264 263
293 293 294 294 294 294 294 294 294 295 296 296 295 294 292 292 288 281 285 284 285 281 279 270 270 276 277 277 278 280 280 280 275 271 273 272 276 269 267 265 265 264 264 263 262 263 265 263 263 263 263 263 261 261
292 292 293 293 293 293 293 293 293 293 295 295 293 290 284 280 278 279 289 282 277 277 267 264 262 268 274 275 277 279 278 274 273 272 270 270 270 273 264 265 264 264 265 262 261 261 261 260 259 259 258 258 259 259
292 292 292 292 293 292 293 292 292 290 294 294 282 275 274 276 286 284 276 273 268 265 264 259 262 265 271 273 273 275 275 270 271 267 268 264 261 259 261 261 265 265 263 262 259 256 256 255 257 257 257 257 258 257
292 291 291 292 292 292 292 291 291 287 284 272 268 268 275 281 275 269 265 264 260 260 257 257 259 260 268 269 270 272 269 266 265 262 264 259 262 263 260 260 262 263 262 259 259 259 257 258 257 256 254 253 253 252
291 291 290 291 291 291 291 290 289 275 267 271 272 270 268 266 265 266 254 258 259 258 254 255 258 259 260 265 261 264 263 263 261 255 260 258 262 256 256 256 257 257 257 255 255 257 257 257 256 256 255 253 252 251
291 291 290 290 291 291 290 289 287 285 280 268 266 262 265 260 263 258 255 258 255 251 251 251 257 259 261 263 257 258 259 256 256 257 257 261 258 254 251 250 249 246 248 250 248 249 252 250 248 250 251 247 247 247
290 290 288 289 290 290 288 286 283 277 267 262 260 261 257 254 252 251 252 252 254 254 250 252 250 256 252 260 256 257 256 256 253 255 258 257 254 252 250 246 249 249 247 248 248 246 249 249 248 246 247 248 249 248
290 289 287 287 289 289 286 282 278 263 262 259 260 257 254 249 246 243 241 245 249 249 251 251 251 261 253 255 255 253 256 252 255 258 258 257 251 251 250 245 246 247 247 246 246 248 249 249 249 250 248 247 247 247
289 282 279 288 288 286 284 270 262 258 254 256 252 252 246 249 248 244 242 246 248 253 250 251 250 254 251 250 255 253 254 255 259 255 257 249 247 249 249 249 250 247 249 247 248 248 250 251 250 251 247 245 247 246
284 268 285 287 287 280 278 262 260 253 254 253 252 240 247 246 252 247 246 249 252 250 253 248 255 255 254 252 254 251 256 258 258 256 249 249 251 254 251 250 249 248 248 247 246 244 247 246 243 244 247 247 244 245
265 272 285 286 279 268 258 256 256 255 252 247 255 250 243 244 246 243 242 246 249 247 247 254 255 251 253 253 254 257 256 251 246 248 249 247 245 246 250 251 248 248 248 246 246 247 247 248 250 253 251 247 246 244
277 280 283 282 274 259 260 258 256 255 248 244 245 246 243 243 244 244 242 244 245 246 250 247 250 252 255 253 256 251 246 250 255 253 250 247 249 250 249 246 248 247 248 248 251 254 255 254 254 252 250 247 248 245
281 280 281 277 272 262 259 256 254 256 252 251 246 246 246 246 243 239 240 243 246 246 250 251 256 256 257 256 256 255 254 253 252 250 252 250 249 248 250 251 252 252 253 254 255 254 252 252 250 247 247 248 246 248
274 271 274 265 259 257 255 251 252 249 248 252 247 251 251 248 246 245 244 243 248 251 254 255 253 251 245 244 244 245 249 253 256 258 257 252 249 252 250 251 252 252 253 255 255 255 253 254 250 250 247 247 247 245
265 275 262 265 261 256 255 253 253 250 251 246 251 250 251 251 249 246 247 247 250 255 255 252 249 246 246 249 249 247 247 247 245 248 250 253 250 250 249 253 253 254 254 256 256 254 252 252 248 246 248 248 245 244
271 268 262 259 261 260 254 253 253 248 254 252 249 252 252 250 248 249 250 253 255 254 249 248 244 241 244 241 240 241 241 246 250 250 249 251 246 247 249 253 256 256 253 253 249 250 250 248 248 248 246 245 245 244
269 261 262 259 260 256 250 251 253 252 251 253 254 255 253 253 249 250 254 257 258 249 248 251 248 248 244 243 245 247 249 247 246 245 245 250 250 250 249 252 251 255 254 246 249 250 248 247 248 247 247 246 244 246
265 263 261 259 254 257 254 254 254 256 258 255 253 254 252 249 252 252 255 259 256 255 256 254 252 254 256 249 248 247 243 250 252 254 250 252 246 245 245 241 245 249 246 247 244 244 242 243 246 247 246 246 247 245
262 259 260 261 256 259 257 255 257 259 258 255 255 250 249 253 253 258 259 259 258 260 258 257 257 253 249 250 248 248 251 247 247 250 249 252 254 256 256 253 253 253 248 252 253 250 249 247 247 247 247 247 247 245
261 262 256 253 258 258 256 256 257 259 259 259 254 251 255 257 257 261 261 258 259 260 257 257 256 255 253 249 248 247 242 247 250 249 246 247 251 254 255 255 255 256 251 252 254 253 253 251 250 250 250 248 248 248
260 258 260 257 257 259 261 258 259 259 260 257 257 256 259 260 263 264 260 257 255 253 252 246 245 247 247 246 245 244 242 241 243 245 246 248 247 248 249 250 249 257 251 253 254 254 255 254 253 252 251 251 251 248
256 255 258 258 258 256 258 261 261 260 258 260 261 261 261 263 262 258 254 251 248 248 250 250 250 241 242 241 240 240 241 246 248 248 247 249 248 251 247 248 249 248 249 252 257 255 255 255 254 254 253 253 253 251
258 255 256 255 257 258 257 252 253 251 252 252 251 254 256 258 258 255 251 250 250 252 250 247 243 245 246 246 245 245 241 244 248 250 248 248 249 246 243 245 248 249 250 251 254 256 262 259 258 252 251 251 250 249
250 251 253 254 256 253 249 247 247 248 248 249 250 252 253 252 253 255 253 247 248 246 247 247 245 241 242 241 242 242 246 242 242 245 245 245 244 243 244 245 247 249 252 254 255 256 257 256 254 253 252 251 251 251
250 253 255 254 255 250 246 246 249 249 249 251 251 249 251 251 255 254 248 246 245 246 249 245 245 248 245 242 241 241 247 242 242 245 245 246 246 245 246 246 246 249 252 255 255 255 255 255 255 254 253 253 252 251
252 252 251 252 253 251 249 249 248 247 246 248 250 252 252 250 254 253 247 246 248 248 247 247 244 242 243 243 243 242 245 242 243 252 255 255 252 250 246 246 247 250 253 254 254 255 254 255 254 254 253 252 252 251
Wind_Speed
36 36 36 36 35 32 28 27 26 25 24 22 19 14 11 4 7 6 1 3 3 3 2 2 1 6 3 10 10 6 3 0 3 2 4 3 4 5 4 4 10 9 9 4 4 3 10 2 1 9 6 7 10 7
35 34 32 32 29 28 26 25 21 18 15 14 14 14 10 13 17 5 2 1 2 3 3 2 8 5 5 4 5 11 10 6 6 5 2 5 3 3 4 6 3 4 7 8 7 6 4 4 4 3 4 10 6 7
34 33 31 29 28 24 22 19 17 13 9 9 10 4 7 13 14 8 3 2 2 3 3 3 5 5 3 3 2 4 1 7 4 2 6 3 6 5 5 5 4 4 2 4 5 3 6 8 7 5 8 11 10 9
31 31 31 30 26 23 21 19 17 15 15 16 15 15 17 17 12 7 5 2 1 2 4 3 3 5 11 10 3 3 5 4 5 3 3 3 4 1 3 4 4 3 7 7 4 5 6 4 6 11 12 11 11 8
29 29 28 28 27 23 19 17 13 11 11 12 11 9 9 8 11 9 4 3 2 2 4 2 1 6 11 9 13 11 5 6 3 3 4 3 2 3 2 3 1 2 6 7 6 9 4 7 13 13 13 11 9 11
28 28 27 26 24 23 20 16 15 12 10 10 12 10 11 10 5 4 5 3 9 3 5 4 2 6 10 11 16 14 9 6 5 3 2 2 2 2 3 3 1 2 2 2 4 7 12 17 13 11 12 10 9 10
27 27 26 25 25 24 22 16 10 11 8 10 13 16 12 18 9 5 2 7 18 3 5 3 3 5 7 5 4 5 7 4 3 2 3 1 1 4 3 3 4 4 5 10 14 13 11 8 8 9 11 10 10 9
25 26 27 27 25 24 23 21 11 5 6 10 15 18 15 17 13 4 6 15 4 5 5 4 3 4 10 5 3 5 3 2 6 1 1 3 1 3 2 1 9 7 8 8 8 7 9 14 12 10 9 10 9 8
24 24 26 27 27 27 24 22 17 4 6 3 3 6 4 7 5 1 10 7 7 7 5 5 3 1 8 4 3 3 3 4 2 3 3 2 2 4 1 6 11 9 4 11 9 9 10 11 10 8 6 6 8 6
24 23 24 27 26 26 26 25 22 5 6 3 6 5 4 3 11 7 8 7 10 7 7 5 2 3 5 4 3 2 2 2 2 3 3 3 4 2 3 3 7 7 11 12 10 4 4 5 7 7 5 4 4 5
24 22 22 25 27 26 25 25 22 3 8 5 4 2 3 10 4 6 5 7 5 7 6 2 1 2 5 3 2 4 1 2 3 4 2 3 4 1 3 6 7 7 7 4 3 4 5 8 10 8 5 4 5 5
23 22 20 22 27 26 25 23 20 6 2 4 4 2 4 8 5 9 2 4 7 0 4 2 3 2 4 3 3 4 3 3 1 2 4 4 3 2 4 3 4 5 6 5 2 8 8 9 7 7 6 5 5 3
22 22 17 20 27 25 23 20 14 8 5 4 7 8 7 7 12 7 4 5 3 2 3 4 2 2 4 2 3 4 6 2 1 5 3 5 2 2 4 3 2 3 3 5 4 5 6 5 4 4 5 3 3 3
23 21 14 17 26 24 22 17 12 4 7 7 6 8 5 5 1 5 4 5 3 1 1 1 2 2 2 5 1 7 3 3 5 4 5 4 4 4 5 2 5 5 4 4 4 3 4 4 3 2 3 4 5 5
24 19 10 15 26 23 19 11 12 6 6 5 5 2 2 2 1 2 2 2 3 1 1 2 3 1 4 5 3 3 7 3 5 6 5 4 3 5 6 5 5 4 5 3 4 5 6 6 5 4 3 3 3 3
25 6 7 25 25 20 18 7 7 5 6 6 7 6 1 3 3 2 1 3 2 0 1 3 3 6 3 3 4 4 6 6 5 5 4 2 2 4 6 6 6 4 6 4 4 3 4 5 5 5 3 3 4 4
13 2 22 22 24 10 17 6 6 9 6 6 2 0 4 3 4 3 3 4 1 4 1 3 5 5 1 4 3 5 7 5 5 4 3 5 5 8 7 6 6 6 6 6 5 4 4 3 4 4 4 5 4 5
1 5 19 20 14 6 5 6 7 6 6 0 3 3 1 1 4 1 3 1 3 2 3 4 4 3 6 6 5 6 6 4 3 3 2 2 3 4 6 7 5 5 5 4 4 4 4 5 5 6 5 4 4 4
8 7 13 14 7 6 5 6 5 5 2 2 0 2 2 1 1 2 2 1 2 2 4 3 4 4 6 6 6 4 3 4 4 4 3 4 4 7 6 4 5 5 6 5 6 5 6 8 6 4 4 4 4 3
8 7 12 9 7 5 6 4 2 6 3 3 3 2 3 2 1 1 2 3 2 3 3 3 8 6 6 5 5 4 4 4 5 2 4 3 4 6 8 8 6 6 6 5 4 4 3 3 3 4 4 5 4 5
7 5 7 5 5 8 6 1 4 2 3 3 2 2 3 1 2 1 1 2 3 5 5 6 5 4 2 2 1 1 3 5 6 5 5 2 4 5 4 5 5 4 5 6 7 7 7 7 4 5 5 4 4 3
3 7 3 4 5 4 6 1 4 1 4 1 1 1 2 2 2 2 2 2 6 6 7 5 4 3 2 4 4 5 2 3 2 3 3 6 4 3 3 6 7 7 7 7 7 7 7 6 4 4 5 5 3 3
4 4 4 4 5 5 1 1 4 4 4 3 1 2 1 1 1 1 3 5 6 5 2 3 2 1 2 2 2 3 4 4 4 4 3 3 2 2 4 5 7 7 6 6 5 5 5 5 5 5 3 3 3 3
4 4 2 1 2 3 1 3 2 3 3 2 2 2 2 2 2 1 5 5 5 2 2 4 3 0 1 1 3 4 4 5 2 1 3 5 3 4 5 4 5 5 4 3 5 5 4 5 5 5 6 5 5 5
2 4 3 3 1 4 3 2 1 2 3 3 3 2 2 2 2 4 5 6 3 3 3 4 3 4 3 2 3 4 3 6 6 7 4 6 3 2 1 2 4 5 4 4 4 4 4 4 5 6 6 7 8 8
5 3 5 5 1 5 6 5 6 6 4 4 4 2 2 2 1 8 5 4 4 4 5 7 7 4 3 6 3 2 4 5 4 2 3 7 8 7 6 5 5 5 9 9 6 8 7 6 6 8 7 9 8 6
6 6 2 0 1 4 3 1 1 2 5 7 5 5 4 3 7 6 3 2 2 2 1 2 4 5 4 3 3 3 3 5 5 3 1 3 4 5 5 6 7 5 7 11 10 9 10 10 8 9 8 4 7 8
5 3 4 4 3 2 4 3 5 7 4 3 6 7 8 9 6 3 2 1 2 2 2 1 1 2 2 2 1 1 1 1 2 3 3 4 4 4 4 3 2 5 4 7 8 8 8 8 9 8 8 8 6 7
2 2 3 3 1 2 5 7 5 2 1 5 5 5 5 4 1 1 1 1 2 2 2 1 2 2 2 1 0 1 3 4 5 3 4 4 4 4 3 3 4 3 3 4 7 7 8 7 7 7 7 5 4 4
3 1 2 2 5 6 3 1 2 1 1 0 1 3 3 4 2 2 3 2 2 3 2 2 1 2 2 2 1 4 3 5 4 4 4 4 5 3 2 3 4 3 4 4 4 3 8 7 8 4 4 4 3 3
1 2 2 2 4 2 1 1 2 2 1 1 0 2 3 6 6 3 3 3 3 2 2 2 2 3 3 3 3 1 3 2 4 6 5 4 4 2 3 3 3 3 4 5 5 6 7 6 6 5 6 6 7 6
1 3 3 3 3 0 1 1 0 0 2 1 1 0 3 3 5 4 3 4 3 2 5 3 3 3 5 3 2 2 2 2 3 4 5 4 4 4 3 2 2 3 4 5 4 4 7 7 5 6 6 7 7 7
1 0 0 2 3 2 1 2 2 3 1 1 2 1 2 2 7 5 2 3 3 4 4 4 3 3 4 5 4 3 4 3 5 7 9 7 5 5 4 3 3 3 5 4 4 5 6 6 5 5 6 6 6 6
Wind_Direction
23 25 28 31 39 51 75 85 94 102 106 110 115 102 67 352 174 102 143 179 190 151 48 257 103 158 144 174 172 161 110 211 140 147 110 185 127 206 119 149 168 166 151 172 115 162 261 70 116 178 121 87 120 114
20 26 30 35 41 46 52 54 57 65 82 102 99 102 204 232 194 154 137 23 27 79 101 347 97 58 41 309 118 165 178 138 208 111 138 115 140 136 152 183 116 213 181 172 182 200 73 41 74 48 124 133 131 121
22 22 27 36 38 44 60 56 55 56 44 62 85 139 124 110 152 151 128 330 59 129 121 52 4 327 353 337 283 136 357 112 283 202 152 152 133 145 158 228 99 252 165 116 111 147 131 116 82 70 98 113 115 113
24 25 25 28 31 34 36 43 50 57 63 66 64 72 77 75 78 102 88 313 54 76 80 30 323 22 322 346 177 222 117 125 125 69 95 119 121 205 187 153 145 183 129 132 75 111 107 179 138 133 118 115 116 108
21 26 25 26 25 24 26 27 33 45 46 40 46 48 46 60 86 81 91 71 76 165 136 124 171 357 354 15 55 48 63 81 42 59 48 86 114 104 340 53 242 208 158 176 204 166 132 138 149 148 140 134 130 134
18 20 23 24 27 24 16 8 6 12 17 19 29 29 45 56 24 56 19 6 21 16 89 56 279 6 348 5 36 35 37 51 51 79 63 25 350 90 105 185 118 68 45 315 137 71 91 116 122 132 134 130 125 122
10 12 16 19 20 21 19 13 353 2 30 42 52 57 59 59 57 68 100 302 321 303 79 58 20 19 340 345 31 13 29 60 55 105 57 103 60 64 101 193 127 100 88 94 105 104 93 148 149 133 129 126 116 106
6 7 7 9 13 16 17 15 9 348 52 60 66 50 61 88 117 47 6 1 334 81 52 77 320 32 8 9 30 355 38 50 24 110 35 40 350 50 296 97 133 124 103 66 42 41 100 115 114 116 122 131 123 115
4 5 5 5 6 5 9 13 8 325 202 150 63 31 21 27 37 271 344 41 39 67 92 58 42 310 342 4 1 37 7 59 332 50 41 340 321 216 174 168 167 168 171 136 95 84 95 108 117 115 112 105 118 127
358 0 3 2 3 3 2 3 6 350 191 132 38 46 15 316 315 345 9 25 23 5 30 90 282 338 334 334 41 21 25 51 62 14 321 55 267 296 351 307 137 138 130 137 115 106 115 114 141 140 140 130 128 145
354 354 357 360 360 2 2 1 3 60 49 38 42 109 248 327 50 31 47 49 336 30 12 323 35 329 348 26 30 23 73 5 78 284 98 331 298 83 43 56 68 105 117 86 102 125 134 144 151 147 144 158 163 165
351 351 352 357 359 359 1 6 1 50 144 168 149 68 21 30 25 70 19 345 41 99 325 32 317 315 298 11 90 341 112 30 211 309 65 318 244 180 130 122 95 103 119 113 51 121 123 129 135 141 148 164 183 186
350 349 351 356 357 357 358 6 20 87 79 32 46 48 30 314 42 64 341 329 22 311 319 333 323 331 332 28 61 57 63 211 359 38 236 238 268 192 176 143 102 13 67 105 77 66 88 108 97 138 166 206 154 177
348 348 346 352 355 355 356 1 18 63 67 66 63 23 79 339 232 182 185 189 242 186 258 167 284 54 270 41 15 74 253 67 38 20 248 266 250 194 166 184 134 189 177 149 148 130 139 149 180 211 203 169 163 187
341 345 356 347 350 352 353 12 28 42 71 74 60 65 60 239 291 231 229 342 261 173 52 12 13 33 353 63 38 90 25 323 198 227 236 243 241 170 179 186 193 175 170 178 172 170 178 174 172 195 217 196 200 177
338 5 356 347 349 350 353 40 35 74 51 74 68 86 347 58 301 335 193 261 239 80 37 49 82 49 352 113 49 220 112 225 249 225 235 161 206 194 186 192 200 174 170 172 171 175 158 171 181 199 156 209 218 202
351 23 340 340 346 355 12 66 51 44 103 61 3 18 124 104 166 198 155 209 183 79 202 101 66 208 91 39 295 196 202 213 213 245 225 205 192 195 192 178 182 181 176 174 174 185 185 165 118 116 194 230 215 222
279 285 328 343 357 18 28 41 79 75 61 235 111 231 285 77 130 242 240 261 92 116 109 193 123 104 181 176 258 234 228 249 229 219 236 253 217 194 174 188 171 171 172 176 182 178 162 158 187 216 203 198 198 228
287 313 337 355 27 80 63 9 51 100 199 199 186 52 91 139 294 16 105 155 167 164 109 45 87 200 226 212 209 238 240 206 203 213 225 232 197 180 178 158 155 164 174 176 183 198 203 201 212 196 195 171 202 210
328 337 353 23 31 78 51 355 55 97 144 191 74 50 96 127 199 46 353 12 75 79 45 196 215 213 194 220 194 187 186 153 131 53 282 238 195 164 180 174 186 173 176 163 182 184 199 231 222 205 186 184 177 224
2 326 1 55 44 61 82 23 46 135 141 112 173 142 107 44 44 62 252 312 51 212 238 218 226 249 258 270 259 165 173 161 186 176 190 216 197 175 161 182 161 150 171 189 197 208 206 221 207 179 181 204 207 205
260 351 35 9 75 38 78 41 118 176 69 147 113 24 107 141 197 233 165 97 235 237 205 189 219 188 194 235 218 206 234 167 127 113 80 115 117 150 194 187 167 195 199 203 197 203 211 211 180 180 184 210 164 192
358 26 37 43 71 54 293 99 74 1 108 205 67 55 245 192 199 167 252 227 258 235 206 195 205 226 211 310 311 266 201 176 205 208 199 197 196 175 144 175 189 192 205 224 190 189 208 181 186 184 170 148 165 199
32 56 97 92 59 170 5 34 72 89 66 119 144 216 218 170 151 113 254 244 236 129 200 202 162 144 316 327 259 234 201 182 198 281 199 160 202 237 202 198 194 212 204 145 170 198 185 194 171 171 177 179 192 205
60 270 118 241 357 103 114 115 123 158 194 171 160 219 184 157 189 229 241 264 233 218 186 149 178 221 219 266 290 265 221 171 184 217 199 196 124 50 311 254 239 228 156 153 185 178 199 163 179 182 182 189 200 209
234 243 175 199 198 169 177 154 197 191 150 169 212 99 174 145 160 241 231 224 228 190 178 188 182 172 247 207 222 258 247 173 129 201 245 191 195 197 208 199 222 249 189 204 176 189 188 182 183 186 200 206 204 195
243 239 169 122 27 118 93 76 89 159 169 194 174 161 178 201 242 247 268 235 217 220 163 165 160 170 178 200 243 244 181 175 183 195 236 205 210 214 190 197 212 233 163 184 190 186 190 186 191 197 206 182 200 202
226 168 192 169 192 256 147 158 176 204 197 161 128 185 189 200 238 245 225 38 41 67 86 57 74 136 154 199 199 128 359 325 333 317 296 252 225 231 224 229 218 159 154 177 186 185 187 180 184 186 192 204 201 190
197 220 131 143 154 219 226 195 211 187 83 165 184 212 232 231 280 237 223 196 123 114 113 133 286 28 33 345 248 207 156 151 136 204 247 260 335 300 220 211 187 180 147 145 187 178 185 177 172 179 183 184 181 154
190 104 122 177 183 225 213 159 219 292 338 171 265 297 266 256 243 135 137 155 173 204 205 183 165 129 212 139 307 317 226 208 211 188 194 230 231 278 290 209 186 167 146 145 157 168 176 158 133 113 133 148 164 168
126 102 106 183 241 224 238 298 322 319 318 281 172 232 272 312 303 222 193 183 168 129 156 232 239 198 171 193 178 117 311 290 217 239 244 258 263 275 309 252 197 145 147 151 157 166 154 166 165 168 175 186 192 198
83 212 175 211 247 177 20 140 165 92 333 341 265 267 300 335 276 270 184 126 108 182 218 160 149 241 204 199 190 216 193 217 241 236 247 237 243 215 205 180 135 119 133 148 153 163 170 178 180 187 196 203 203 207
80 77 19 320 300 298 264 109 24 336 347 288 268 277 258 185 254 282 277 214 169 187 184 194 197 175 182 185 192 211 216 224 259 276 277 243 213 187 158 148 139 136 148 154 166 172 184 191 199 199 204 211 218 222